Tracking 19831 objects as of 23-Aug-2019
HD Live streaming from Space Station
objects crossing your sky now

COSMOS 2251 DEB

Track COSMOS 2251 DEB now!
10-day predictions


NORAD ID: 36447
Int'l Code: 1993-036BAW
Perigee: 520.5 km
Apogee: 631.6 km
Inclination: 73.9 °
Period: 96.0 minutes
Semi major axis: 6947 km
RCS: 0.0095 m2 (small)
Launch date: June 16, 1993
Source: Commonwealth of Independent States (former USSR) (CIS)
Launch site: PLESETSK MISSILE AND SPACE COMPLEX (PKMTR)

Note: This is SATELLITE DEBRIS
aabbcc
Your satellite tracking list
Your tracking list is empty




NASA's NSSDC Master Catalog

Two Line Element Set (TLE):
1 36447U 93036BAW 19234.89216155  .00000779  00000-0  63202-4 0  9991
2 36447  73.9320 308.8051 0079947  53.4700 307.3812 14.99357617533401
Source of the keplerian elements: AFSPC